Starlink 11239

operational
NORAD ID: 60924 Int'l Des: 2024-155 Owner: SPXS Country: US Constellation: starlink
LEOCIRCULAR

Über Starlink 11239

Beschreibung wird geladen...

Live-Position

3D-Globus wird geladen...

Nächste Überflüge

Höhenverlauf

Altitude vs Time

uPlot chart will show altitude changes over time

Zweizeiliger Elementsatz

1 60924U 24155A 26037.27623059 -.00001390 00000-0 -66341-5 0 9990
2 60924 53.1583 136.4719 0000294 59.6327 300.4720 15.69685005 83468
Epoch: 6. Feb. 2026 • Age: 14 hours

Aktueller Status

Höhe 366.2 km
Geschwindigkeit 7.70 km/s
Subsatellitenpunkt 53.20°N, 140.17°E
Startdatum 31. Aug. 2024
Alter 1.4 years
Typ internet

Technische Details

Klassifizierung Payload
Masse 960.00 kg
Trockenmasse 910.00 kg
Gesamtmasse 960.00 kg
Länge 0.30 m
Durchmesser 4.10 m
Spannweite 29.00 m
Form Box + pan
Hersteller SPXS
Bus-Typ Starlink V2MD
Phasenstatus In Orbit
Besitzer/Staat SPXS/US

Große Konstellationen

Loading constellations...